Torna al catalogo

NOAA 16 DEB

AttivoSSO
NORAD 41716·DEBRIS·🇺🇸 United States

Lanciato Sep 21, 2000 da Vandenberg Space Force Base

Loading…

Prossimi Passaggi (prossime 24 ore)

TLE

AggiornatoSource: Space-Track

Epoca: Sep 14, 2026, 10:33 UTC

1 41716U 00055PW  26257.44002003  .00001878  00000-0  76175-3 0  9997
2 41716  98.6277 324.1718 0003270 246.4218 113.6621 14.28846664539090

Traccia NOAA 16 DEB in tempo reale con AllMySat

Download on the App Store